GPS BIIF-12

Last updated on Thu Jul 10 2025 00:02:32 GMT+0000 (Coordinated Universal Time)

1 41328U 16007A 25190.33951146 -.00000026 00000+0 00000+0 0 9998 2 41328 55.3123 103.0671 0087913 242.8645 116.2476 2.00568731 68964
UTC large
Height (km)
Speed (km/s)
/
Latitude / Longitude
Inclination (degrees)
Orbital Period (minutes)
Azimuth
Elevation
Range (km)
Doppler Factor

Next 0 passes for location: London (51.5072 / 0.1276)

Sorry there are no passes over London.